ONEWEB-0346 (49212 NORAD) Tracking and Keplerian Element Data

This shows tracking and keplerian element data for the satellite.

Feedback or suggestion? Click here.




ElementValue
Catalog49212
NameONEWEB-0346
Epoch Orbit356
Epoch Day300.58334491
Epoch Year2021
RAAN314.1144
Inclination87.5871
Eccentricity0.0021013
Argument of Perigee150.3276
Mean Anonmoly20.4567
Mean Motion14.53301794
Decay Rate-0.01429962
L11 49212U 21083AC 21300.58334491 -.01429962 00000-0 -36839+0 0 9998
L22 49212 87.5871 314.1144 0021013 150.3276 20.4567 14.53301794 3560

Live tracking and technical data element details for ONEWEB-0346 (NORAD 49212). ONEWEB-0346 can be tracked NOW for your location showing map with azimuth and elevation plus other details from your city location.

Track the satellite on the map from your city or location and see movement details for azimuth, elevation, latitude, longitude, range, height, and movement on the map or in text.







IsCatalogInMostPopularTable: catalog: 49212, numindb: 12
Update: records affected: 1



GetName: 49212 ONEWEB-0346

Hit Count: updated at: Thu, 28 Oct 2021 11:25:58 GMT